EDT,Max TemperatureF,Mean TemperatureF,Min TemperatureF,Max Dew PointF,MeanDew PointF,Min DewpointF,Max Humidity, Mean Humidity, Min Humidity, Max Sea Level PressureIn, Mean Sea Level PressureIn, Min Sea Level PressureIn, Max VisibilityMiles, Mean VisibilityMiles, Min VisibilityMiles, Max Wind SpeedMPH, Mean Wind SpeedMPH, Max Gust SpeedMPH,PrecipitationIn, CloudCover, Events, WindDirDegrees
2013-3-1,44,39,34,37,33,30,100,84,58,29.67,29.58,29.50,10,10,4,18,6,24,0.00,7,,353
2013-3-2,42,38,34,30,27,25,76,66,53,29.68,29.65,29.62,10,10,10,15,8,21,0.00,7,,298
2013-3-3,37,36,32,30,27,25,92,70,60,29.63,29.60,29.57,10,10,5,13,6,,0.00,8,Snow,303
2013-3-4,42,36,30,29,23,22,88,62,45,29.71,29.62,29.57,10,10,6,17,12,28,0.00,5,Snow,306
2013-3-5,44,36,28,34,28,23,96,71,55,30.04,29.92,29.73,10,10,10,18,13,24,0.00,6,,346
2013-3-6,41,36,30,36,34,30,100,88,73,30.02,29.97,29.86,10,9,3,33,13,46,0.02,8,Rain,51
2013-3-7,37,35,33,36,34,33,100,95,89,29.86,29.83,29.80,10,5,2,32,27,47,1.35,8,Rain-Snow,25
2013-3-8,41,37,33,39,34,29,100,97,62,30.02,29.85,29.80,10,4,1,29,22,43,0.38,8,Rain-Snow,19
2013-3-9,41,36,30,31,30,29,96,76,67,30.30,30.18,30.03,10,10,10,28,20,39,0.00,4,,23
2013-3-10,44,36,28,32,31,27,100,79,60,30.38,30.35,30.31,10,10,10,15,8,20,0.00,4,,80
2013-3-11,48,40,35,41,37,32,93,85,71,30.34,30.27,30.18,10,10,10,14,7,,0.00,5,,177
2013-3-12,54,48,42,53,47,42,100,95,86,30.19,29.96,29.77,10,7,2,26,15,37,0.56,6,Rain,168
2013-3-13,51,43,28,54,40,23,100,83,44,29.79,29.75,29.70,10,8,2,16,10,31,0.72,5,Rain,275
2013-3-14,37,32,26,30,19,6,85,58,38,29.84,29.78,29.72,10,10,7,24,9,33,0.00,6,Snow,295
2013-3-15,39,31,23,30,16,8,73,53,33,29.88,29.79,29.70,10,10,10,20,13,32,0.00,2,,285
2013-3-16,39,34,30,27,19,7,79,53,29,29.87,29.80,29.70,10,10,10,16,10,23,0.00,4,,298
2013-3-17,41,31,21,27,15,6,89,53,28,30.29,30.04,29.87,10,10,10,17,6,23,0.00,1,,317
2013-3-18,37,28,19,25,16,4,70,54,41,30.44,30.35,30.21,10,10,9,14,9,21,0.00,2,Snow,76
2013-3-19,46,39,33,45,38,25,100,94,70,30.17,29.70,29.48,10,5,0,24,16,34,0.63,8,Fog-Rain-Snow,94
2013-3-20,42,36,30,30,24,18,89,66,41,29.83,29.77,29.68,10,10,10,20,12,32,0.00,3,,277
2013-3-21,43,30,18,30,27,16,100,80,45,29.83,29.65,29.57,10,6,1,17,8,24,0.05,7,Snow,4
2013-3-22,37,32,28,30,24,18,100,72,48,29.75,29.65,29.59,10,7,1,21,13,26,0.02,6,Snow,301
2013-3-23,44,38,32,24,20,16,69,52,34,29.79,29.73,29.66,10,10,10,25,15,33,0.00,1,,291
2013-3-24,48,36,27,27,23,20,85,58,34,29.84,29.79,29.74,10,10,10,16,10,23,0.00,0,,300
2013-3-25,46,35,26,35,31,24,93,77,60,29.75,29.54,29.42,10,10,6,26,12,34,0.02,4,Rain,47
2013-3-26,48,40,33,34,30,24,93,73,39,29.78,29.60,29.43,10,9,3,21,14,29,0.04,4,Rain-Snow,336
2013-3-27,52,40,30,33,26,22,77,55,32,29.85,29.79,29.75,10,10,10,20,8,24,0.00,3,,298
2013-3-28,50,42,35,37,34,25,93,78,41,30.02,29.91,29.84,10,10,5,21,9,25,0.02,8,Rain,348
2013-3-29,57,45,35,34,33,29,85,62,40,30.04,30.02,30.00,10,10,10,16,7,17,0.00,3,,284
2013-3-30,55,47,39,34,31,26,79,58,35,30.10,30.05,30.03,10,10,10,17,8,23,0.00,3,,283
2013-3-31,52,39,27,43,35,25,93,74,57,30.13,30.06,29.80,10,10,7,24,8,37,0.01,2,Rain,202